| time (UTC) | temp F | wind direction | speed MPH | gust MPH | rain 1hr in | rain 24hr in | rain mn in | humidity % | barometer mb |
| 20260505073051 | 58 | 263 | 4.0 | 9.0 | 0.00 | 0.00 | 0.00 | 68 | 1020.9 |
| 20260505071547 | 59 | 271 | 4.0 | 9.0 | 0.00 | 0.00 | 0.00 | 68 | 1020.8 |
| 20260505070046 | 59 | 293 | 6.0 | 12.0 | 0.00 | 0.00 | 0.00 | 67 | 1020.7 |
| 20260505064544 | 59 | 266 | 3.0 | 9.0 | 0.00 | 0.00 | 0.00 | 67 | 1020.6 |
| 20260505063043 | 59 | 276 | 5.0 | 10.0 | 0.00 | 0.00 | 0.00 | 66 | 1020.4 |
| 20260505061546 | 59 | 248 | 4.0 | 8.0 | 0.00 | 0.00 | 0.00 | 67 | 1020.4 |
| 20260505060040 | 59 | 272 | 4.0 | 10.0 | 0.00 | 0.00 | 0.00 | 67 | 1020.3 |
| 20260505054541 | 59 | 283 | 4.0 | 10.0 | 0.00 | 0.00 | 0.00 | 70 | 1020.2 |
| 20260505053044 | 59 | 248 | 2.0 | 7.0 | 0.00 | 0.00 | 0.00 | 71 | 1020.0 |
| 20260505051536 | 59 | 263 | 0.0 | 3.0 | 0.00 | 0.00 | 0.00 | 71 | 1019.9 |
| 20260505041525 | 58 | 238 | 4.0 | 12.0 | 0.00 | 0.00 | 0.00 | 70 | 1019.5 |
| 20260505040024 | 58 | 262 | 2.0 | 11.0 | 0.00 | 0.00 | 0.00 | 72 | 1019.5 |
| 20260505034523 | 58 | 274 | 8.0 | 17.0 | 0.00 | 0.00 | 0.00 | 70 | 1019.4 |
| 20260505033025 | 58 | 274 | 9.0 | 15.0 | 0.00 | 0.00 | 0.00 | 69 | 1019.4 |
| 20260505031521 | 58 | 285 | 7.0 | 15.0 | 0.00 | 0.00 | 0.00 | 70 | 1019.4 |
| 20260505030027 | 58 | 267 | 5.0 | 13.0 | 0.00 | 0.00 | 0.00 | 69 | 1019.5 |
| 20260505024520 | 58 | 271 | 5.0 | 15.0 | 0.00 | 0.00 | 0.00 | 68 | 1019.5 |
| 20260505023021 | 58 | 257 | 10.0 | 19.0 | 0.00 | 0.00 | 0.00 | 66 | 1019.5 |
| 20260505021518 | 58 | 251 | 5.0 | 15.0 | 0.00 | 0.00 | 0.00 | 66 | 1019.7 |
| 20260505020017 | 58 | 264 | 4.0 | 16.0 | 0.00 | 0.00 | 0.00 | 65 | 1019.9 |
| 20260505014516 | 58 | 319 | 4.0 | 15.0 | 0.00 | 0.00 | 0.00 | 65 | 1019.8 |
| 20260505013013 | 58 | 256 | 6.0 | 15.0 | 0.00 | 0.00 | 0.00 | 64 | 1019.9 |
| 20260505011514 | 58 | 231 | 5.0 | 15.0 | 0.00 | 0.00 | 0.00 | 65 | 1019.9 |
| 20260505010008 | 58 | 269 | 7.0 | 16.0 | 0.00 | 0.00 | 0.00 | 65 | 1019.9 |
| 20260505004518 | 57 | 283 | 6.0 | 17.0 | 0.00 | 0.00 | 0.00 | 65 | 1019.8 |
| 20260505003003 | 56 | 275 | 10.0 | 20.0 | 0.00 | 0.00 | 0.00 | 67 | 1019.8 |
| 20260505001600 | 56 | 287 | 7.0 | 20.0 | 0.00 | 0.00 | 0.00 | 70 | 1019.7 |
| 20260504234615 | 56 | 271 | 10.0 | 23.0 | 0.00 | 0.00 | 0.00 | 70 | 1019.4 |
| 20260504233053 | 56 | 267 | 10.0 | 23.0 | 0.00 | 0.00 | 0.00 | 70 | 1019.2 |
| 20260504231555 | 55 | 287 | 13.0 | 20.0 | 0.00 | 0.00 | 0.00 | 72 | 1019.1 |
| 20260504230047 | 55 | 224 | 9.0 | 18.0 | 0.00 | 0.00 | 0.00 | 76 | 1018.9 |
| 20260504224546 | 54 | 262 | 9.0 | 19.0 | 0.00 | 0.00 | 0.00 | 77 | 1018.9 |
| 20260504223043 | 54 | 254 | 8.0 | 18.0 | 0.00 | 0.00 | 0.00 | 79 | 1018.6 |
| 20260504221544 | 53 | 266 | 6.0 | 15.0 | 0.00 | 0.00 | 0.00 | 81 | 1018.4 |
| 20260504220038 | 52 | 269 | 7.0 | 15.0 | 0.00 | 0.00 | 0.00 | 83 | 1018.2 |
| 20260504214538 | 52 | 290 | 9.0 | 15.0 | 0.00 | 0.00 | 0.00 | 85 | 1017.5 |
| 20260504213031 | 52 | 260 | 8.0 | 14.0 | 0.00 | 0.00 | 0.00 | 85 | 1017.3 |
| 20260504211526 | 52 | 260 | 7.0 | 14.0 | 0.00 | 0.00 | 0.00 | 85 | 1017.1 |
| 20260504210023 | 52 | 285 | 6.0 | 14.0 | 0.00 | 0.00 | 0.00 | 85 | 1016.9 |
| 20260504204544 | 53 | 269 | 8.0 | 16.0 | 0.00 | 0.00 | 0.00 | 85 | 1016.6 |
| 20260504203016 | 53 | 298 | 9.0 | 16.0 | 0.00 | 0.00 | 0.00 | 85 | 1016.4 |
| 20260504201513 | 53 | 272 | 5.0 | 12.0 | 0.00 | 0.00 | 0.00 | 85 | 1016.2 |
| 20260504200014 | 53 | 256 | 7.0 | 16.0 | 0.00 | 0.00 | 0.00 | 85 | 1016.1 |
| 20260504194510 | 53 | 276 | 7.0 | 15.0 | 0.00 | 0.00 | 0.00 | 84 | 1015.9 |
| 20260504193012 | 54 | 262 | 9.0 | 16.0 | 0.00 | 0.00 | 0.00 | 84 | 1015.8 |
| 20260504191502 | 54 | 279 | 9.0 | 18.0 | 0.00 | 0.00 | 0.00 | 84 | 1015.5 |
| 20260504184605 | 53 | 233 | 7.0 | 13.0 | 0.00 | 0.00 | 0.00 | 85 | 1015.1 |
| 20260504183100 | 53 | 241 | 5.0 | 13.0 | 0.00 | 0.00 | 0.00 | 85 | 1015.0 |
| 20260504181554 | 54 | 255 | 7.0 | 17.0 | 0.00 | 0.00 | 0.00 | 85 | 1014.8 |
| 20260504180052 | 53 | 264 | 7.0 | 14.0 | 0.00 | 0.00 | 0.00 | 85 | 1014.7 |
| 20260504174552 | 54 | 307 | 8.0 | 17.0 | 0.00 | 0.00 | 0.00 | 84 | 1014.6 |
| 20260504173048 | 54 | 278 | 8.0 | 18.0 | 0.00 | 0.00 | 0.00 | 83 | 1014.5 |
| 20260504171548 | 54 | 270 | 7.0 | 14.0 | 0.00 | 0.00 | 0.00 | 83 | 1014.3 |
| 20260504081549 | 60 | 283 | 2.0 | 11.0 | 0.00 | 0.00 | 0.00 | 70 | 1008.7 |